ICT,Max TemperatureF,Mean TemperatureF,Min TemperatureF,Max Dew PointF,MeanDew PointF,Min DewpointF,Max Humidity, Mean Humidity, Min Humidity, Max Sea Level PressureIn, Mean Sea Level PressureIn, Min Sea Level PressureIn, Max VisibilityMiles, Mean VisibilityMiles, Min VisibilityMiles, Max Wind SpeedMPH, Mean Wind SpeedMPH, Max Gust SpeedMPH,PrecipitationIn, CloudCover, Events, WindDirDegrees
2011-11-1,91,83,75,77,74,72,94,77,59,29.86,29.80,29.71,6,6,6,12,3,,0.00,6,,10
2011-11-2,91,82,73,75,73,70,94,78,55,29.80,29.77,29.71,6,5,1,13,4,29,0.00,6,Rain-Thunderstorm,96
2011-11-3,89,83,77,75,74,70,94,78,52,29.83,29.78,29.71,6,5,4,12,3,,0.00,6,Thunderstorm,70
2011-11-4,89,82,75,75,74,72,94,81,58,29.86,29.81,29.74,6,5,1,12,2,,0.00,6,Rain-Thunderstorm,303
2011-11-5,87,81,75,75,74,72,94,80,62,29.89,29.81,29.77,4,4,3,9,2,,0.00,6,,300
2011-11-6,86,80,75,75,74,73,94,78,66,29.89,29.82,29.74,6,4,2,13,3,,0.00,6,Thunderstorm,284
2011-11-7,86,82,77,75,73,72,89,75,66,29.86,29.82,29.77,5,4,2,16,7,,0.00,6,Rain,297
2011-11-8,86,80,73,75,73,70,94,79,66,29.92,29.84,29.77,5,4,1,17,9,29,0.00,6,Rain,284
2011-11-9,87,84,78,73,73,72,83,71,62,29.92,29.83,29.77,6,5,3,17,10,,0.00,6,,286
2011-11-10,87,81,75,77,74,72,94,78,66,29.86,29.82,29.74,6,6,6,7,1,,0.00,3,,308
2011-11-11,89,80,71,75,72,66,94,74,46,29.92,29.84,29.77,6,6,1,10,4,,0.00,4,Rain,33
2011-11-12,87,80,73,75,74,72,100,81,62,29.92,29.84,29.77,6,6,5,15,5,,0.00,6,Thunderstorm,84
2011-11-13,87,81,75,75,73,72,94,78,58,29.92,29.87,29.80,6,5,2,12,4,,0.00,6,Rain-Thunderstorm,56
2011-11-14,87,81,75,75,73,72,94,81,62,29.92,29.87,29.80,6,5,4,12,4,,0.00,6,Rain,77
2011-11-15,86,80,75,75,73,72,94,80,62,29.92,29.87,29.80,6,5,4,13,3,,0.00,6,,92
2011-11-16,87,81,75,75,73,70,94,77,55,29.89,29.84,29.77,6,6,3,10,3,,0.00,5,Rain-Thunderstorm,50
2011-11-17,91,83,75,75,73,72,94,77,55,29.86,29.81,29.74,6,5,1,15,3,,0.00,5,Rain-Thunderstorm,299
2011-11-18,87,81,75,77,74,70,94,78,58,29.86,29.80,29.74,6,5,3,12,2,,0.00,6,,299
2011-11-19,89,83,77,75,74,68,94,77,49,29.89,29.81,29.74,6,5,4,10,3,,0.00,6,Rain,78
2011-11-20,89,83,77,75,74,72,94,76,55,29.89,29.83,29.77,6,5,4,13,7,,0.00,5,Rain,68
2011-11-21,86,82,77,75,73,72,89,75,62,29.86,29.81,29.74,6,5,4,15,6,,0.00,6,,67
2011-11-22,87,82,78,77,74,72,84,76,66,29.83,29.78,29.71,5,4,3,12,7,,0.00,6,,71
2011-11-23,132,104,77,77,74,70,89,72,16,29.83,29.78,29.71,6,5,1,20,8,,0.00,6,Rain,80
2011-11-24,87,82,78,77,73,70,83,73,58,29.83,29.77,29.71,6,6,4,20,11,,0.00,6,Rain,71
2011-11-25,89,84,78,77,73,72,89,75,59,29.80,29.76,29.68,6,6,1,22,8,,0.00,6,Rain,73
2011-11-26,89,83,77,75,73,72,94,75,58,29.83,29.76,29.68,6,6,3,14,7,,0.00,4,Rain,70
2011-11-27,89,84,78,77,74,73,94,77,59,29.83,29.77,29.71,6,5,4,16,5,,0.00,5,,73
2011-11-28,91,84,77,77,74,73,94,78,55,29.83,29.77,29.68,6,5,1,10,3,,0.00,4,Rain,81
2011-11-29,89,82,75,77,75,73,100,82,62,29.83,29.78,29.71,6,5,1,16,5,,0.00,5,Rain,58
2011-11-30,89,82,75,77,74,72,100,81,55,29.83,29.77,29.68,6,5,4,12,3,,0.00,5,Rain,56